Terug naar catalogus

COSMOS 917 DEB

LostHEO
NORAD 32966·DEBRIS·🇷🇺 Russia

Gelanceerd Jun 16, 1977 vanaf Plesetsk Cosmodrome

Loading…

Volgende Passages (komende 24 uur)

TLE

VerouderdSource: Space-Track

Epoch: Apr 9, 2010, 08:44 UTC

1 32966U 77047P   10099.36413954  .00000051  00000-0  10000-3 0  9995
2 32966  69.0425 207.7156 5118664  97.4197 320.9967  1.88072006 41496

Volg COSMOS 917 DEB in realtime met AllMySat

Download on the App Store